This is the latest recevied weather packets stored in our database for station/object K4KMJ. If no packets are shown the sender has not sent any weather packets the latest 10 day(s).
| Time | Temp. | Humidity | Pressure | Rain* | Wind** | Luminosity | Snow |
|---|---|---|---|---|---|---|---|
| 1777926147 | 25° C | 64% | 1017.7 hPa | 0 mm | - | 631 W/m² | - |
| 1777925844 | 24.44° C | 63% | 1017.7 hPa | 0 mm | - | 141 W/m² | - |
| 1777925541 | 25° C | 63% | 1017.7 hPa | 0 mm | - | 709 W/m² | - |
| 1777925239 | 25° C | 63% | 1017.8 hPa | 0 mm | - | 270 W/m² | - |
| 1777924935 | 25° C | 63% | 1017.9 hPa | 0 mm | - | 709 W/m² | - |
| 1777924631 | 25° C | 63% | 1018 hPa | 0 mm | - | 714 W/m² | - |
| 1777924327 | 25° C | 64% | 1017.9 hPa | 0 mm | - | 615 W/m² | - |
| 1777924024 | 25° C | 63% | 1018.2 hPa | 0 mm | - | 291 W/m² | - |
| 1777923721 | 25.56° C | 63% | 1018 hPa | 0 mm | - | 640 W/m² | - |
| 1777923417 | 25° C | 63% | 1018 hPa | 0 mm | - | 729 W/m² | - |
| 1777923115 | 25° C | 64% | 1018.1 hPa | 0 mm | - | 690 W/m² | - |
| 1777922813 | 25° C | 63% | 1018 hPa | 0 mm | - | 396 W/m² | - |
| 1777922510 | 25° C | 63% | 1018.3 hPa | 0 mm | - | 825 W/m² | - |
| 1777922208 | 25.56° C | 63% | 1018.2 hPa | 0 mm | - | 408 W/m² | - |
| 1777921899 | 25° C | 63% | 1018.2 hPa | 0 mm | - | 680 W/m² | - |
| 1777921595 | 25.56° C | 63% | 1018.5 hPa | 0 mm | - | 339 W/m² | - |
| 1777921292 | 25° C | 63% | 1018.6 hPa | 0 mm | - | 838 W/m² | - |
| 1777920988 | 25.56° C | 63% | 1018.3 hPa | 0 mm | - | 852 W/m² | - |
| 1777920685 | 25.56° C | 63% | 1018.5 hPa | 0 mm | - | 938 W/m² | - |
| 1777920381 | 25.56° C | 63% | 1018.5 hPa | 0 mm | - | 787 W/m² | - |
| 1777920076 | 25° C | 63% | 1018.8 hPa | 0 mm | - | 769 W/m² | - |
| 1777919773 | 25° C | 63% | 1018.8 hPa | 0 mm | - | 851 W/m² | - |
| 1777919471 | 25° C | 63% | 1018.7 hPa | 0 mm | - | 670 W/m² | - |
| 1777919168 | 25° C | 63% | 1018.8 hPa | 0 mm | - | 807 W/m² | - |
| 1777918866 | 25° C | 62% | 1018.8 hPa | 0 mm | - | 741 W/m² | - |
* Rain latest hour (hover to see other rain measurements)
** Current wind speed in m/s (hover to see current wind gust speed)